When you browse on this site, cookies collect data to enhance your experience and personalize the content and advertising you see.
Visit our Privacy Policy to learn more. By continuing to use the site, you agree to this use of cookies and data.
  • En España
  • Lista de países
  • Para 7 días
  • Temperatura del agua
  • Mapa Satelital
  • El tiempo en el mapa
  • Informadores
  • user-avatar
    Iniciar sesión

    Tiempo cada hora Newcastle

    Hoy, 20 Julio, Sábado

    Tiempo Temperatura Precipitaciones Viento Presión Humedad
    00:00 +8°C° 0 mm 2 mps 766 mmHg 79%
    01:00 +8°C° 0 mm 2 mps 766 mmHg 79%
    02:00 +7°C° 0 mm 2 mps 766 mmHg 80%
    03:00 +7°C° 0 mm 2 mps 766 mmHg 81%
    04:00 +7°C° 0 mm 2 mps 766 mmHg 84%
    05:00 +6°C° 0 mm 2 mps 766 mmHg 85%
    06:00 +6°C° 0 mm 2 mps 766 mmHg 86%
    07:00 +6°C° 0 mm 2 mps 767 mmHg 87%
    08:00 +9°C° 0 mm 2 mps 767 mmHg 77%
    09:00 +12°C° 0 mm 2 mps 766 mmHg 66%
    10:00 +15°C° 0 mm 2 mps 767 mmHg 54%
    11:00 +17°C° 0 mm 2 mps 766 mmHg 50%
    12:00 +18°C° 0 mm 2 mps 765 mmHg 45%
    13:00 +20°C° 0 mm 2 mps 764 mmHg 41%
    14:00 +19°C° 0 mm 2 mps 764 mmHg 45%
    15:00 +19°C° 0 mm 3 mps 764 mmHg 48%
    16:00 +19°C° 0 mm 3 mps 764 mmHg 51%
    17:00 +17°C° 0 mm 3 mps 764 mmHg 56%
    18:00 +13°C° 0 mm 3 mps 764 mmHg 61%
    19:00 +11°C° 0 mm 3 mps 765 mmHg 66%
    20:00 +11°C° 0 mm 3 mps 765 mmHg 70%
    21:00 +10°C° 0 mm 3 mps 765 mmHg 74%
    22:00 +9°C° 0 mm 3 mps 765 mmHg 79%
    23:00 +9°C° 0 mm 3 mps 764 mmHg 78%

    Mañana, 21 Julio, Domingo

    Tiempo Temperatura Precipitaciones Viento Presión Humedad
    00:00 +9°C° 0 mm 3 mps 764 mmHg 78%
    01:00 +8°C° 0 mm 3 mps 764 mmHg 78%
    02:00 +8°C° 0 mm 3 mps 764 mmHg 77%
    03:00 +7°C° 0 mm 3 mps 763 mmHg 76%
    04:00 +7°C° 0 mm 3 mps 763 mmHg 76%
    05:00 +7°C° 0 mm 3 mps 763 mmHg 76%
    06:00 +5°C° 0 mm 3 mps 763 mmHg 76%
    07:00 +5°C° 0 mm 3 mps 763 mmHg 76%
    08:00 +9°C° 0 mm 3 mps 763 mmHg 66%
    09:00 +12°C° 0 mm 3 mps 763 mmHg 57%
    10:00 +16°C° 0 mm 3 mps 763 mmHg 47%
    11:00 +18°C° 0 mm 4 mps 762 mmHg 44%
    12:00 +19°C° 0 mm 4 mps 762 mmHg 40%
    13:00 +21°C° 0 mm 5 mps 761 mmHg 37%
    14:00 +21°C° 0 mm 4 mps 761 mmHg 41%
    15:00 +20°C° 0 mm 4 mps 761 mmHg 44%
    16:00 +20°C° 0 mm 4 mps 761 mmHg 47%
    17:00 +18°C° 0 mm 4 mps 761 mmHg 53%
    18:00 +15°C° 0 mm 4 mps 761 mmHg 59%
    19:00 +14°C° 0 mm 4 mps 762 mmHg 65%
    20:00 +13°C° 0 mm 4 mps 762 mmHg 68%
    21:00 +12°C° 0 mm 4 mps 762 mmHg 71%
    22:00 +11°C° 0 mm 3 mps 762 mmHg 74%
    23:00 +11°C° 0 mm 3 mps 762 mmHg 77%

    Pasado mañana, 22 Julio, Lunes

    Tiempo Temperatura Precipitaciones Viento Presión Humedad
    00:00 +10°C° 0 mm 3 mps 762 mmHg 80%
    01:00 +10°C° 0 mm 3 mps 762 mmHg 82%
    02:00 +10°C° 0 mm 3 mps 762 mmHg 82%
    03:00 +10°C° 0 mm 3 mps 762 mmHg 83%
    04:00 +10°C° 0 mm 3 mps 762 mmHg 83%
    05:00 +10°C° 0 mm 3 mps 762 mmHg 82%
    06:00 +10°C° 0 mm 3 mps 762 mmHg 81%
    07:00 +10°C° 0 mm 3 mps 763 mmHg 81%
    08:00 +11°C° 0.5 mm 3 mps 763 mmHg 82%
    09:00 +12°C° 0.5 mm 3 mps 763 mmHg 84%
    10:00 +13°C° 0.5 mm 3 mps 763 mmHg 85%
    11:00 +16°C° 0.1 mm 3 mps 762 mmHg 76%
    12:00 +18°C° 0.1 mm 3 mps 761 mmHg 67%
    13:00 +19°C° 0.1 mm 4 mps 761 mmHg 58%
    14:00 +20°C° 0 mm 3 mps 761 mmHg 57%
    15:00 +20°C° 0 mm 3 mps 760 mmHg 56%
    16:00 +20°C° 0 mm 3 mps 760 mmHg 55%
    17:00 +18°C° 0 mm 3 mps 761 mmHg 60%
    18:00 +16°C° 0 mm 3 mps 761 mmHg 65%
    19:00 +14°C° 0 mm 3 mps 761 mmHg 71%
    20:00 +13°C° 0 mm 3 mps 762 mmHg 72%
    21:00 +13°C° 0 mm 3 mps 762 mmHg 74%
    22:00 +12°C° 0 mm 3 mps 762 mmHg 75%
    23:00 +11°C° 0 mm 3 mps 762 mmHg 77%

    23 Julio, Martes

    Tiempo Temperatura Precipitaciones Viento Presión Humedad
    00:00 +11°C° 0 mm 3 mps 761 mmHg 79%
    01:00 +10°C° 0 mm 3 mps 761 mmHg 80%
    02:00 +10°C° 0 mm 3 mps 761 mmHg 81%
    03:00 +10°C° 0 mm 3 mps 761 mmHg 82%
    04:00 +9°C° 0 mm 3 mps 761 mmHg 82%
    05:00 +8°C° 0 mm 4 mps 762 mmHg 83%
    06:00 +8°C° 0 mm 4 mps 762 mmHg 84%
    07:00 +7°C° 0 mm 4 mps 762 mmHg 85%
    08:00 +10°C° 0 mm 5 mps 762 mmHg 73%
    09:00 +13°C° 0 mm 5 mps 763 mmHg 60%
    10:00 +16°C° 0 mm 5 mps 763 mmHg 48%
    11:00 +17°C° 0 mm 5 mps 762 mmHg 44%
    12:00 +19°C° 0 mm 5 mps 762 mmHg 39%
    13:00 +20°C° 0 mm 5 mps 761 mmHg 35%
    14:00 +20°C° 0 mm 5 mps 761 mmHg 37%
    15:00 +20°C° 0 mm 5 mps 761 mmHg 38%
    16:00 +19°C° 0 mm 5 mps 761 mmHg 39%
    17:00 +17°C° 0 mm 5 mps 761 mmHg 42%
    18:00 +15°C° 0 mm 5 mps 762 mmHg 45%
    19:00 +13°C° 0 mm 5 mps 762 mmHg 48%
    20:00 +13°C° 0 mm 5 mps 762 mmHg 51%
    21:00 +12°C° 0 mm 5 mps 762 mmHg 54%
    22:00 +10°C° 0 mm 5 mps 763 mmHg 58%
    23:00 +10°C° 0 mm 5 mps 762 mmHg 58%

    24 Julio, Miércoles

    Tiempo Temperatura Precipitaciones Viento Presión Humedad
    00:00 +9°C° 0 mm 5 mps 762 mmHg 59%
    01:00 +8°C° 0 mm 5 mps 761 mmHg 60%
    02:00 +9°C° 0 mm 6 mps 761 mmHg 59%
    03:00 +9°C° 0 mm 6 mps 761 mmHg 58%
    04:00 +9°C° 0 mm 7 mps 761 mmHg 57%
    05:00 +10°C° 0 mm 7 mps 761 mmHg 57%
    06:00 +10°C° 0 mm 7 mps 761 mmHg 57%
    07:00 +10°C° 0 mm 8 mps 761 mmHg 58%
    08:00 +12°C° 0 mm 7 mps 762 mmHg 55%
    09:00 +14°C° 0 mm 7 mps 762 mmHg 51%
    10:00 +15°C° 0 mm 7 mps 762 mmHg 48%
    11:00 +16°C° 0 mm 6 mps 762 mmHg 46%
    12:00 +19°C° 0 mm 6 mps 761 mmHg 43%
    13:00 +20°C° 0 mm 6 mps 761 mmHg 40%
    14:00 +19°C° 0 mm 6 mps 761 mmHg 39%
    15:00 +19°C° 0 mm 5 mps 761 mmHg 39%
    16:00 +17°C° 0 mm 5 mps 761 mmHg 38%
    17:00 +16°C° 0 mm 5 mps 762 mmHg 41%
    18:00 +14°C° 0 mm 5 mps 763 mmHg 43%
    19:00 +12°C° 0 mm 5 mps 763 mmHg 46%
    20:00 +11°C° 0 mm 4 mps 764 mmHg 51%
    21:00 +8°C° 0 mm 4 mps 765 mmHg 56%
    22:00 +7°C° 0 mm 4 mps 765 mmHg 61%
    23:00 +6°C° 0 mm 4 mps 765 mmHg 63%

    25 Julio, Jueves

    Tiempo Temperatura Precipitaciones Viento Presión Humedad
    00:00 +6°C° 0 mm 4 mps 765 mmHg 66%
    01:00 +5°C° 0 mm 4 mps 765 mmHg 69%
    02:00 +5°C° 0 mm 4 mps 765 mmHg 70%
    03:00 +4°C° 0 mm 4 mps 765 mmHg 71%
    04:00 +4°C° 0 mm 3 mps 766 mmHg 72%
    05:00 +4°C° 0 mm 3 mps 766 mmHg 70%
    06:00 +5°C° 0 mm 3 mps 766 mmHg 69%
    07:00 +5°C° 0 mm 3 mps 767 mmHg 68%
    08:00 +8°C° 0 mm 3 mps 767 mmHg 63%
    09:00 +10°C° 0 mm 3 mps 767 mmHg 58%
    10:00 +12°C° 0 mm 3 mps 767 mmHg 53%
    11:00 +14°C° 0 mm 2 mps 766 mmHg 52%
    12:00 +15°C° 0 mm 2 mps 765 mmHg 51%
    13:00 +17°C° 0 mm 2 mps 765 mmHg 50%
    14:00 +16°C° 0 mm 2 mps 765 mmHg 52%
    15:00 +16°C° 0 mm 1 mps 764 mmHg 55%
    16:00 +15°C° 0 mm 1 mps 764 mmHg 58%
    17:00 +13°C° 0 mm 1 mps 765 mmHg 68%
    18:00 +11°C° 0 mm 1 mps 765 mmHg 77%
    19:00 +9°C° 0 mm 1 mps 765 mmHg 87%
    20:00 +9°C° 0 mm 1 mps 765 mmHg 89%
    21:00 +8°C° 0 mm 1 mps 765 mmHg 91%
    22:00 +8°C° 0 mm 1 mps 765 mmHg 93%
    23:00 +7°C° 0 mm 2 mps 765 mmHg 93%
    Mostrar más